Tracking 17925 objects as of 21-January-2017
HD Live streaming from Space Station
objects crossing your sky now

TITAN 3 R/B(2)

Track TITAN 3 R/B(2) now!


NORAD ID: 20669
Int'l Code: 1990-056C
Perigee: 266.2 km
Apogee: 33,129.4 km
Inclination: 24.0 °
Period: 581.2 minutes
Semi major axis: 23068 km
RCS: 6.947 m2 (large)
Launch date: June 23, 1990
Source: United States (US)
Launch site: AIR FORCE EASTERN TEST RANGE (AFETR)

Note: This is a ROCKET BODY
Your satellite tracking list
Your tracking list is empty





NASA's NSSDC Master Catalog

Two Line Element Set (TLE):
1 20669U 90056C   17020.47916458  .00001167  00000-0  37137-3 0  9996
2 20669  23.9772 149.1811 7122881 276.6276  13.8640  2.47780877223745
Source of the keplerian elements: AFSPC